Weather History for KMGW - January, 2000

Change the Weather History Date:

Sunday, January 23, 2000

  Actual Average Record
Temperature  
Mean Temperature 25 °F 31 °F  
Max Temperature 33 °F 39 °F 73 °F (1999)
Min Temperature 17 °F 24 °F -3 °F (1977)
Degree Days  
Heating Degree Days 40 34  
Month to date heating degree days 779  
Since 1 July heating degree days 2763  
Cooling Degree Days 0 0  
Month to date cooling degree days 0  
Year to date cooling degree days 0  
Moisture  
Dew Point 24 °F    
Average Humidity 97    
Maximum Humidity 100    
Minimum Humidity 92    
Precipitation  
Precipitation 0.01 in 0.09 in 1.05 in (2006)
Month to date precipitation 2.08  
Year to date precipitation 2.08  
Snow  
Snow 0.00 in - - ()
Snow Depth 4.00 in    
Sea Level Pressure  
Sea Level Pressure 30.02 in    
Wind  
Wind Speed 3 mph (SW)    
Max Wind Speed 9 mph    
Max Gust Speed -    
Visibility 6 miles    
Events Snow    
T = Trace of Precipitation, MM = Missing Value Source: NWS Daily Summary

Daily Weather History Graph

Daily Weather History Graph

Search for Another Location

Airport or City:

Trip Planner

Search our weather history database for the weather conditions in past years. The results will help you decide how hot, cold, wet, or windy it might be!

Date:

Astronomy

Jan. 23, 2000 Rise Set
Actual Time 7:34 AM EST 5:28 PM EST
Civil Twilight 7:05 AM EST 5:57 PM EST
Nautical Twilight 6:33 AM EST 6:30 PM EST
Astronomical Twilight 6:01 AM EST 7:02 PM EST
Moon 8:34 PM EST (1/23) 9:23 AM EST (1/23)
Length of Visible Light 10h 51m
Length of Day
9h 53m
Waning Gibbous, 91% of the Moon is Illuminated
Jan 23
Waning Gibbous
Jan 28
Last Quarter
Feb 5
New
Feb 12
First Quarter
Feb 19
Full

Hourly Weather History & Observations

Time (EST) Temp. Windchill Dew Point Humidity Pressure Visibility Wind Dir Wind Speed Gust Speed Precip Events Conditions
12:06 AM 17.6 °F 12.3 °F 15.8 °F 93% 30.00 in 2.0 mi North 3.5 mph - 0.00 in Snow Light Snow
12:35 AM 17.6 °F - 15.8 °F 93% 29.99 in 4.0 mi Calm Calm - 0.00 in Snow Light Snow
12:53 AM 17.1 °F - 17.1 °F 100% 30.05 in 5.0 mi Calm Calm - 0.00 in Snow Light Snow
1:11 AM 17.6 °F 12.3 °F 17.6 °F 100% 30.00 in 2.0 mi North 3.5 mph - 0.00 in Snow Light Snow
1:25 AM 17.6 °F 12.3 °F 17.6 °F 100% 29.99 in 3.0 mi North 3.5 mph - 0.00 in Snow Light Snow
1:53 AM 18.0 °F 12.7 °F 17.1 °F 96% 30.05 in 6.0 mi North 3.5 mph - 0.00 in Snow Light Snow
2:27 AM 19.4 °F - 17.6 °F 93% 29.98 in 5.0 mi Calm Calm - 0.01 in Snow Light Snow
2:53 AM 19.0 °F - 18.0 °F 96% 30.03 in 9.0 mi Calm Calm - 0.01 in Snow Light Snow
3:53 AM 19.9 °F - 19.0 °F 96% 30.03 in 9.0 mi Calm Calm - 0.00 in Snow Light Snow
4:53 AM 19.0 °F - 19.0 °F 100% 30.04 in 9.0 mi Calm Calm - 0.00 in Snow Light Snow
5:08 AM 19.4 °F - 19.4 °F 100% 29.97 in 9.0 mi Calm Calm - 0.00 in Snow Light Snow
6:34 AM 21.2 °F - 21.2 °F 100% 29.98 in 5.0 mi Calm Calm - 0.00 in Snow Light Snow
6:53 AM 21.0 °F - 21.0 °F 100% 30.05 in 4.0 mi Calm Calm - 0.00 in Snow Light Snow
7:34 AM 21.2 °F 16.4 °F 21.2 °F 100% 29.98 in 2.5 mi South 3.5 mph - 0.00 in Snow Light Snow
7:42 AM 21.2 °F - 21.2 °F 100% 29.98 in 3.0 mi Calm Calm - 0.00 in Snow Light Snow
7:53 AM 21.0 °F 13.4 °F 21.0 °F 100% 30.04 in 3.0 mi SSW 5.8 mph - 0.00 in Snow Light Snow
8:00 AM 21.2 °F - 21.2 °F 100% 29.98 in 2.5 mi Calm Calm - 0.00 in Snow Light Snow
8:53 AM 23.0 °F - 23.0 °F 100% 30.05 in 2.5 mi Calm Calm - 0.00 in Snow Light Snow
9:08 AM 26.6 °F 20.0 °F 26.6 °F 100% 30.00 in 3.0 mi South 5.8 mph - 0.00 in Snow Light Snow
9:53 AM 26.1 °F 19.4 °F 26.1 °F 100% 30.06 in 2.0 mi South 5.8 mph - 0.00 in Snow Light Snow
10:14 AM 26.6 °F - 26.6 °F 100% 30.00 in 3.0 mi Calm Calm - 0.00 in Snow Light Snow
10:53 AM 28.0 °F 22.8 °F 28.0 °F 100% 30.06 in 8.0 mi SW 4.6 mph - 0.00 in   Overcast
11:53 AM 30.0 °F 24.1 °F 30.0 °F 100% 30.04 in 6.0 mi WSW 5.8 mph - N/A   Haze
12:53 PM 30.2 °F 23.4 °F 30.2 °F 100% 30.04 in 6.0 mi WSW 6.9 mph - N/A   Haze
1:53 PM 30.9 °F 23.5 °F 30.0 °F 96% 30.03 in 10.0 mi SSW 8.1 mph - N/A   Overcast
2:53 PM 32.0 °F 26.4 °F 30.0 °F 92% 30.02 in 10.0 mi SW 5.8 mph - N/A   Overcast
3:00 PM 32.0 °F 27.5 °F 30.2 °F 93% 29.97 in 10.0 mi SSW 4.6 mph - N/A   Overcast
3:53 PM 32.0 °F 26.4 °F 30.9 °F 96% 30.03 in 10.0 mi Variable 5.8 mph - N/A   Overcast
4:53 PM 32.0 °F 26.4 °F 30.0 °F 92% 30.04 in 10.0 mi Variable 5.8 mph - N/A   Overcast
5:53 PM 32.0 °F 24.2 °F 30.0 °F 92% 30.04 in 10.0 mi SW 9.2 mph - N/A   Overcast
6:53 PM 33.1 °F 30.0 °F 30.9 °F 92% 30.06 in 10.0 mi SW 3.5 mph - N/A   Overcast
7:53 PM 32.0 °F 28.7 °F 30.9 °F 96% 30.06 in 10.0 mi SSW 3.5 mph - N/A   Overcast
8:53 PM 32.0 °F 26.4 °F 30.0 °F 92% 30.05 in 10.0 mi WSW 5.8 mph - N/A   Overcast
9:53 PM 32.0 °F 27.5 °F 30.0 °F 92% 30.05 in 10.0 mi WSW 4.6 mph - N/A   Overcast
10:53 PM 32.0 °F - 30.0 °F 92% 30.07 in 10.0 mi Calm Calm - N/A   Overcast
11:53 PM 32.0 °F 27.5 °F 30.0 °F 92% 30.07 in 10.0 mi Variable 4.6 mph - N/A   Overcast